Jacksonville Weather Center

Moon Phase Calendar



Online Cameras

 


      

Current Conditions in Jacksonville Beach
4/18/2024 5:49:53 PM

80°F
Feels Like 82
Clouds
Humidity
65%
Pressure
29.91"
Wind
12.7 mph (SE)
Dew Point
67°F
UV Index
1/10 (Low)
Visibility
6 mi

Hourly Forecast

Date & Time Thu, Apr 18
5:00 PM
Thu, Apr 18
6:00 PM
Thu, Apr 18
7:00 PM
Thu, Apr 18
8:00 PM
Thu, Apr 18
9:00 PM
Thu, Apr 18
10:00 PM
Thu, Apr 18
11:00 PM
Fri, Apr 19
12:00 AM
Fri, Apr 19
1:00 AM
Fri, Apr 19
2:00 AM
Fri, Apr 19
3:00 AM
Fri, Apr 19
4:00 AM
Fri, Apr 19
5:00 AM
Fri, Apr 19
6:00 AM
Fri, Apr 19
7:00 AM
Fri, Apr 19
8:00 AM
Fri, Apr 19
9:00 AM
Fri, Apr 19
10:00 AM
Fri, Apr 19
11:00 AM
Fri, Apr 19
12:00 PM
Fri, Apr 19
1:00 PM
Fri, Apr 19
2:00 PM
Fri, Apr 19
3:00 PM
Fri, Apr 19
4:00 PM
Fri, Apr 19
5:00 PM
Fri, Apr 19
6:00 PM
Fri, Apr 19
7:00 PM
Fri, Apr 19
8:00 PM
Fri, Apr 19
9:00 PM
Fri, Apr 19
10:00 PM
Fri, Apr 19
11:00 PM
Sat, Apr 20
12:00 AM
Sat, Apr 20
1:00 AM
Sat, Apr 20
2:00 AM
Sat, Apr 20
3:00 AM
Sat, Apr 20
4:00 AM
Sat, Apr 20
5:00 AM
Sat, Apr 20
6:00 AM
Sat, Apr 20
7:00 AM
Sat, Apr 20
8:00 AM
Sat, Apr 20
9:00 AM
Sat, Apr 20
10:00 AM
Sat, Apr 20
11:00 AM
Sat, Apr 20
12:00 PM
Sat, Apr 20
1:00 PM
Sat, Apr 20
2:00 PM
Sat, Apr 20
3:00 PM
Sat, Apr 20
4:00 PM
Condition
Clouds

Clouds

Clouds

Clouds

Clouds

Clouds

Clouds

Clouds

Clouds

Clouds

Clouds

Clouds

Clouds

Clouds

Clouds

Clouds

Clear

Clouds

Clouds

Clouds

Clouds

Clouds

Clear

Clear

Clear

Clear

Clear

Clouds

Clouds

Clouds

Clouds

Clouds

Clouds

Clouds

Clear

Clear

Clear

Clear

Clear

Clear

Clear

Clouds

Clouds

Clouds

Clouds

Clouds

Clouds

Clouds
Temperature 80°F80°F79°F77°F76°F74°F71°F71°F70°F70°F69°F69°F68°F68°F68°F70°F75°F79°F82°F84°F85°F86°F86°F84°F82°F79°F76°F74°F74°F73°F73°F74°F74°F73°F72°F71°F71°F70°F70°F72°F76°F79°F83°F86°F88°F89°F89°F88°F
Feels Like 80°F82°F79°F78°F76°F74°F72°F71°F70°F70°F69°F69°F68°F68°F68°F70°F75°F79°F82°F84°F85°F86°F86°F85°F83°F79°F77°F75°F74°F74°F74°F74°F74°F73°F72°F71°F71°F70°F70°F72°F76°F79°F84°F87°F89°F89°F89°F88°F
Cloudiness 80%75%80%85%89%94%100%99%84%71%54%67%67%67%60%53%9%14%16%15%14%13%4%2%1%4%7%13%100%67%49%37%31%26%0%3%2%3%4%5%9%18%45%60%50%44%14%18%
Visibility 6 mi6 mi6 mi6 mi6 mi6 mi6 mi6 mi6 mi6 mi6 mi6 mi6 mi6 mi6 mi6 mi6 mi6 mi6 mi6 mi6 mi6 mi6 mi6 mi6 mi6 mi6 mi6 mi6 mi6 mi6 mi6 mi6 mi6 mi6 mi6 mi6 mi6 mi6 mi6 mi6 mi6 mi6 mi6 mi6 mi6 mi6 mi6 mi
Precipitation 0%0%0%0%0%0%0%0%0%0%0%0%0%0%0%0%0%0%0%0%0%0%0%0%0%0%0%0%0%0%0%0%0%0%0%0%0%0%0%0%0%0%0%0%0%0%0%0%
Humidity 64%65%67%69%71%74%78%77%76%75%73%72%73%75%76%72%62%52%45%43%43%43%45%49%54%60%66%73%75%76%74%66%61%62%64%67%70%73%75%71%63%56%52%47%44%41%42%44%
Dew Point 67°F67°F67°F66°F66°F65°F64°F63°F62°F61°F60°F60°F60°F60°F60°F61°F61°F59°F57°F57°F58°F58°F59°F60°F61°F63°F64°F65°F65°F65°F64°F62°F59°F59°F59°F60°F60°F61°F61°F62°F62°F62°F63°F62°F61°F60°F60°F60°F
Pressure 29.94"29.91"29.94"29.97"29.97"30.03"30.06"30.06"30.06"30.03"30.03"30.03"30"30"30.03"30.03"30.06"30.06"30.06"30.03"30.03"30"29.97"29.97"29.97"29.97"29.97"30"30"30.03"30.03"30"30"30"30"30"30"30"30.03"30.03"30.06"30.06"30.06"30.03"30.03"30"29.97"29.94"
Wind Speed 12.4 mph11.1 mph9.5 mph8.8 mph8.1 mph7.8 mph7.3 mph6.7 mph5.1 mph4.6 mph5.1 mph4.6 mph4.5 mph3.7 mph3.4 mph2.8 mph3.7 mph4.5 mph2.2 mph2.6 mph5.4 mph7.3 mph9.7 mph11 mph11.8 mph12.8 mph11.5 mph10.1 mph9.3 mph8.6 mph7.1 mph5.9 mph6.9 mph7.2 mph6.9 mph7 mph6.5 mph5.9 mph5.9 mph5.7 mph5.7 mph4.4 mph2.8 mph1.3 mph3.2 mph4 mph5 mph6.2 mph
Wind
Direction
118°
ESE
128°
SE
133°
SE
149°
SSE
155°
SSE
174°
S
194°
SSW
213°
SSW
216°
SW
199°
SSW
216°
SW
230°
SW
227°
SW
232°
SW
231°
SW
256°
WSW
284°
WNW
300°
WNW
345°
NNW
65°
ENE
106°
ESE
108°
ESE
108°
ESE
113°
ESE
119°
ESE
128°
SE
139°
SE
154°
SSE
169°
S
178°
S
187°
S
225°
SW
253°
WSW
257°
WSW
268°
W
273°
W
275°
W
273°
W
267°
W
270°
W
275°
W
276°
W
264°
W
224°
SW
153°
SSE
136°
SE
135°
SE
128°
SE

Daily Forecast

Date High Low Precip. Humidity
Today
Apr 18

Clouds
84 °F
67 °F
0%
50%
Friday
Apr 19

Clouds
86 °F
68 °F
0%
43%
Saturday
Apr 20

Clouds
89 °F
70 °F
2%
44%
Sunday
Apr 21

Rain
87 °F
70 °F
37%
42%
Monday
Apr 22

Rain
71 °F
59 °F
94%
73%
Tuesday
Apr 23

Clouds
71 °F
58 °F
0%
50%
Wednesday
Apr 24

Clouds
81 °F
65 °F
0%
44%
Thursday
Apr 25

Clouds
79 °F
66 °F
0%
65%
Friday
Apr 26

Clouds
79 °F
68 °F
0%
59%
Saturday
Apr 27

Clouds
86 °F
68 °F
0%
46%
Sunday
Apr 28

Rain
82 °F
69 °F
100%
63%
Monday
Apr 29

Clouds
77 °F
70 °F
0%
62%
Tuesday
Apr 30

Clouds
79 °F
69 °F
0%
58%
Wednesday
May 1

Clouds
81 °F
70 °F
0%
56%
Thursday
May 2

Clouds
82 °F
69 °F
0%
58%
Friday
May 3

Rain
83 °F
71 °F
39%
53%

Temperature 8-14 Day Outlook



Precipitation 8-14 Day Outlook




Quick Links
Jacksonville News
Jacksonville Photos
Jacksonville Videos




About Us
Contact Us
Site Map
Search Site
Advertise With Us
   
Jacksonville.USCoast.info
THE JACKSONVILLE WEBSITE

Copyright 2024, Coastal Town
Privacy    |    Legal